軌道要素
Epoch 2013 Apr. 18.0 TT = JDT 2456400.5
T 2013 Apr. 7.17237 TT Rudenko
q 2.1250920 (2000.0) P Q
n 0.11735861 Peri. 22.10835 -0.99446859 +0.06757341
a 4.1316742 Node 161.22343 -0.08035578 -0.98247963
e 0.4856584 Incl. 14.46689 +0.06764006 -0.17368828
P 8.40
From 110 observations 1996 Feb. 17-2013 Aug. 8, mean residual 0".6.
|